THOR ABLESTAR DEB, 48810

Orbit data source: Space-Track

THOR ABLESTAR DEB, 48810 is space debris in LEO originally from a launch on Thu, 29 Jun 1961 UTC launched from the Air Force Eastern Test Range (AFETR). Debris objects in space refer to the collection of defunct objects orbiting the Earth. Examples of debris include non-operational satellites, rocket bodies, and fragments generated from explosions, collisions, or faulty payload assembly.

Loading next visibility...
Identifier
48810, 1961-015MN
Orbit
LEO
Country
Flag of USUS
Related business
Manufacturer
Unknown
Mission
Spacecraft
Bus & Motor
Unknown
Mass
Unknown
Launch date (UTC)
1961-06-29 (64 years ago)
Launch vehicle
Unknown
Launch site
Air Force Eastern Test Range (AFETR)
Object type
Payload
Rocket body
Debris
Shape & HBR
Unknown shape, 0.1 m
Radar Cross Section
Small (<0.1 m²)

Expand to show TLE details & history
Last TLE update: 2 days ago

TLE from 2 days ago
0 THOR ABLESTAR DEB
1 48810U 61015MN  25351.40758396  .00000034  00000-0  83687-4 0  9995
2 48810  66.8554   0.4877 0138316 241.0801 186.5342 13.89329908612102
Epoch: 2025-12-17T09:46Z
TLE epoch observation values (Epoch: 2025-12-17T09:46:55.254Z)
Latitude
58.23192°
Longitude
170.85105°
Altitude
1,040.435 km
Speed
7.287 km/s
True Right ascension
02h 55m 26s
True Declination
58° 05' 01"
Sunlit
Object was in full shadow at epoch
Visualization orbit readout
Latitude
Unknown
Longitude
Unknown
Altitude
Unknown
Speed
Unknown
Apparent Right ascension
Unknown
Apparent Declination
Unknown
Sunlit
N/A
Visualization observer readout
Local Sidereal Time
04:59:56
Azimuth
Unknown
Elevation
Unknown
Doppler factor
Unknown
Orbital elements
Apogee altitude
1,030.442 km
Perigee altitude
828.293 km
Semi-major axis
7,307.505 km
Eccentricity
0.01383
Inclination
66.8554°
RAAN
0.4877°
Arg. of periapsis
241.0801°
True anomaly
186.35688°
Mean anomaly
186.5342°
Eccentric anomaly
186.44524°
Mean motion
3.47448 °/min
Orbital period
103.61 mins
BSTAR
0.000083687

Documentation

Showing up to 5 results
|